FW6583 Weather Reports


time (UTC)temp
F
wind
direction
speed
knots
gust
knots
rain 1hr
in
rain 24hr
in
rain mn
in
humidity
%
barometer
mb
20260508012524 52 142 0.0 0.9 0.00 0.00 0.00 51 1016.1
20260508012024 52 0 0.0 1.7 0.00 0.00 0.00 52 1016.0
20260508011546 52 0 0.0 1.7 0.00 0.00 0.00 52 1015.9
20260508011023 53 300 0.0 1.7 0.00 0.00 0.00 50 1015.8
20260508010524 53 0 0.0 0.0 0.00 0.00 0.00 50 1015.6
20260508010043 53 0 0.0 0.9 0.00 0.00 0.00 49 1015.7
20260508005527 53 0 0.0 0.9 0.00 0.00 0.00 50 1015.6
20260508005025 54 0 0.0 0.9 0.00 0.00 0.00 48 1015.6
20260508004545 54 224 0.0 0.9 0.00 0.00 0.00 48 1015.6
20260508004027 54 237 0.0 1.7 0.00 0.00 0.00 47 1015.5
20260508003524 55 189 0.0 1.7 0.00 0.00 0.00 47 1015.4
20260508003041 55 215 0.0 1.7 0.00 0.00 0.00 47 1015.3
20260508002524 55 326 0.0 0.9 0.00 0.00 0.00 46 1015.2
20260508002024 55 258 0.0 3.5 0.00 0.00 0.00 46 1015.1
20260508001538 56 266 0.0 3.5 0.00 0.00 0.00 45 1015.0
20260508001024 56 205 0.9 3.5 0.00 0.00 0.00 45 1015.0
20260508000526 56 326 0.0 3.5 0.00 0.00 0.00 45 1014.7
20260508000046 57 266 0.9 5.2 0.00 0.00 0.00 43 1014.7
20260507235525 57 240 1.7 6.1 0.00 0.00 0.00 42 1014.6
20260507235023 57 298 2.6 6.1 0.00 0.00 0.00 43 1014.9
20260507234544 57 324 0.9 2.6 0.00 0.00 0.00 45 1014.6
20260507234024 57 268 0.9 2.6 0.00 0.00 0.00 44 1014.5
20260507233524 58 354 0.9 4.3 0.00 0.00 0.00 45 1014.4
20260507233044 58 275 0.9 4.3 0.00 0.00 0.00 44 1014.3
20260507232524 58 319 0.9 4.3 0.00 0.00 0.00 44 1014.3
20260507232024 58 314 0.9 3.5 0.00 0.00 0.00 44 1014.2
20260507231542 58 314 0.9 3.5 0.00 0.00 0.00 44 1014.1
20260507231024 58 281 0.9 2.6 0.00 0.00 0.00 43 1014.2
20260507230524 58 276 0.9 2.6 0.00 0.00 0.00 45 1014.1
20260507230042 58 356 0.9 4.3 0.00 0.00 0.00 43 1014.0
20260507225525 58 333 1.7 4.3 0.00 0.00 0.00 45 1014.1
20260507225023 58 327 0.9 4.3 0.00 0.00 0.00 44 1014.0
20260507224546 58 273 1.7 3.5 0.00 0.00 0.00 45 1014.1
20260507224023 59 342 1.7 3.5 0.00 0.00 0.00 42 1014.1
20260507223524 59 307 0.9 7.0 0.00 0.00 0.00 44 1014.1
20260507223045 59 39 1.7 7.0 0.00 0.00 0.00 42 1013.9
20260507222524 59 316 2.6 7.0 0.00 0.00 0.00 43 1013.9
20260507222024 59 297 0.9 3.5 0.00 0.00 0.00 45 1013.9
20260507221541 59 263 0.9 1.7 0.00 0.00 0.00 45 1013.9
20260507221023 59 101 0.0 1.7 0.00 0.00 0.00 45 1013.8
20260507220524 59 0 0.9 1.7 0.00 0.00 0.00 45 1013.8
20260507220040 59 322 0.9 1.7 0.00 0.00 0.00 44 1013.6
20260507215525 58 74 0.0 1.7 0.00 0.00 0.00 44 1013.6
20260507215027 58 5 0.9 1.7 0.00 0.00 0.00 44 1013.6
20260507214542 59 279 0.9 2.6 0.00 0.00 0.00 45 1013.6
20260507214024 59 314 0.0 4.3 0.00 0.00 0.00 44 1013.5
20260507213524 59 342 1.7 4.3 0.00 0.00 0.00 45 1013.5
20260507213045 60 339 0.9 3.5 0.00 0.00 0.00 45 1013.5
20260507212523 60 350 0.9 3.5 0.00 0.00 0.00 46 1013.4
20260507212023 60 308 0.9 2.6 0.00 0.00 0.00 47 1013.4
20260507211542 60 318 0.9 5.2 0.00 0.00 0.00 46 1013.4
20260507211024 59 300 1.7 5.2 0.00 0.00 0.00 48 1013.5
20260507210523 58 345 0.9 1.7 0.00 0.00 0.00 49 1013.5
20260507210045 58 302 0.0 1.7 0.00 0.00 0.00 48 1013.4
20260507205524 58 299 0.9 2.6 0.00 0.00 0.00 47 1013.5
20260507205025 58 0 0.9 2.6 0.00 0.00 0.00 48 1013.4
20260507204552 58 23 1.7 4.3 0.00 0.00 0.00 47 1013.5
20260507204024 59 295 0.9 4.3 0.00 0.00 0.00 49 1013.3
20260507203525 59 330 0.9 5.2 0.00 0.00 0.00 46 1013.2
20260507203041 59 314 0.9 5.2 0.00 0.00 0.00 47 1013.4
20260507202524 59 307 0.9 4.3 0.00 0.00 0.00 48 1013.5
20260507202023 60 10 1.7 4.3 0.00 0.00 0.00 47 1013.6
20260507201548 60 20 0.9 5.2 0.00 0.00 0.00 46 1013.5
20260507201024 60 26 1.7 5.2 0.00 0.00 0.00 45 1013.4
20260507200527 60 300 1.7 4.3 0.00 0.00 0.00 45 1013.5
20260507200050 61 293 0.9 4.3 0.00 0.00 0.00 46 1013.4
20260507195524 60 16 1.7 3.5 0.00 0.00 0.00 48 1013.6
20260507195028 60 287 1.7 4.3 0.00 0.00 0.00 49 1013.7
20260507194549 59 306 1.7 4.3 0.00 0.00 0.00 49 1013.9
20260507194024 58 158 0.9 3.5 0.00 0.00 0.00 50 1013.9
20260507193525 58 341 0.9 3.5 0.00 0.00 0.00 50 1014.2
20260507193041 58 311 1.7 6.1 0.00 0.00 0.00 50 1014.1
20260507192526 58 297 2.6 6.1 0.00 0.00 0.00 49 1014.1
20260507192024 58 276 0.9 4.3 0.00 0.00 0.00 52 1014.1
20260507191608 58 31 1.7 4.3 0.00 0.00 0.00 49 1014.1
20260507191026 58 20 1.7 5.2 0.00 0.00 0.00 50 1014.0
20260507190527 58 336 1.7 5.2 0.00 0.00 0.00 48 1014.0
20260507190044 58 6 0.9 5.2 0.00 0.00 0.00 49 1013.9
20260507185526 58 254 1.7 5.2 0.00 0.00 0.00 50 1014.0
20260507185026 58 280 1.7 3.5 0.00 0.00 0.00 48 1014.1
20260507184556 58 25 1.7 4.3 0.00 0.00 0.00 49 1014.1
20260507184028 58 38 0.9 4.3 0.00 0.00 0.00 51 1014.1
20260507183526 58 322 0.9 4.3 0.00 0.00 0.00 51 1014.1
20260507183048 59 356 1.7 4.3 0.00 0.00 0.00 49 1014.2
20260507182527 59 278 1.7 4.3 0.00 0.00 0.00 49 1014.0
20260507182028 59 83 1.7 4.3 0.00 0.00 0.00 48 1014.2
20260507181544 59 323 0.9 3.5 0.00 0.00 0.00 50 1014.2
20260507181029 58 27 1.7 3.5 0.00 0.00 0.00 50 1014.1
20260507180527 58 302 1.7 3.5 0.00 0.00 0.00 49 1014.2
20260507180041 59 32 0.9 2.6 0.00 0.00 0.00 50 1014.2
20260507175525 58 18 0.9 3.5 0.00 0.01 0.00 50 1014.2
20260507175027 58 265 1.7 3.5 0.00 0.01 0.00 50 1014.2
20260507174547 58 316 0.9 2.6 0.00 0.01 0.00 51 1014.3
20260507174026 58 303 0.9 3.5 0.00 0.01 0.00 49 1014.4
20260507173527 59 273 1.7 3.5 0.00 0.01 0.00 48 1014.4
20260507173046 59 286 0.9 3.5 0.00 0.01 0.00 46 1014.4
20260507172527 59 341 1.7 3.5 0.00 0.01 0.00 50 1014.6
20260507172026 58 245 0.9 4.3 0.00 0.01 0.00 53 1014.8
20260507171549 59 302 1.7 4.3 0.00 0.01 0.00 51 1014.9
20260507171026 59 15 1.7 2.6 0.00 0.01 0.00 49 1014.7
20260507170526 59 228 0.9 2.6 0.00 0.01 0.00 50 1014.9
20260507170041 58 347 0.9 2.6 0.00 0.01 0.00 51 1015.1
20260507165526 58 134 0.9 2.6 0.00 0.03 0.00 52 1015.1
20260507165026 58 252 0.9 3.5 0.00 0.03 0.00 56 1015.1
20260507164555 57 229 0.9 3.5 0.00 0.03 0.00 53 1015.2
20260507164027 56 281 0.9 2.6 0.00 0.03 0.00 56 1015.1
20260507163601 56 270 0.9 2.6 0.00 0.03 0.00 53 1015.3
20260507163048 56 195 0.9 2.6 0.00 0.03 0.00 54 1015.2
20260507162524 56 25 0.9 2.6 0.00 0.03 0.00 56 1015.3
20260507162024 56 165 0.9 2.6 0.00 0.03 0.00 55 1015.3
20260507161548 55 98 0.9 3.5 0.00 0.03 0.00 53 1015.4
20260507161023 55 323 0.9 3.5 0.00 0.03 0.00 53 1015.4
20260507160528 55 311 0.0 1.7 0.00 0.03 0.00 57 1015.5
20260507160048 56 217 0.9 1.7 0.00 0.03 0.00 57 1015.4
20260507155528 55 124 0.9 4.3 0.00 0.07 0.00 56 1015.5
20260507155026 55 0 0.9 4.3 0.00 0.07 0.00 56 1015.5
20260507154546 55 349 0.9 3.5 0.00 0.07 0.00 59 1015.7
20260507154026 55 0 0.0 3.5 0.00 0.07 0.00 57 1015.6
20260507153526 55 7 0.0 3.5 0.00 0.07 0.00 57 1015.7
20260507153041 55 326 1.7 3.5 0.00 0.07 0.00 60 1015.7
20260507152526 54 308 0.9 2.6 0.00 0.07 0.00 57 1015.8
20260507152027 54 346 0.9 2.6 0.00 0.07 0.00 62 1015.8
20260507151539 53 269 0.0 2.6 0.00 0.07 0.00 66 1015.9
20260507151026 53 243 0.0 2.6 0.00 0.07 0.00 67 1016.0
20260507150527 53 283 0.0 0.9 0.00 0.07 0.00 64 1016.0
20260507150048 52 5 0.9 2.6 0.00 0.07 0.00 63 1016.0
20260507145524 52 0 0.0 2.6 0.00 0.07 0.00 62 1016.0
20260507145023 52 0 0.0 2.6 0.00 0.07 0.00 63 1016.2
20260507144543 52 295 0.9 2.6 0.00 0.07 0.00 65 1016.2
20260507144024 52 233 0.9 2.6 0.00 0.07 0.00 64 1016.2
20260507143524 52 0 0.0 1.7 0.00 0.07 0.00 65 1016.2
20260507143100 51 312 0.0 0.9 0.00 0.07 0.00 69 1016.3
20260507142527 51 0 0.0 0.9 0.00 0.07 0.00 68 1016.3
20260507142026 51 25 0.0 0.9 0.00 0.07 0.00 66 1016.5
20260507141600 50 0 0.0 0.9 0.00 0.07 0.00 70 1016.6
20260507141026 50 0 0.0 0.0 0.00 0.07 0.00 69 1016.7
20260507140525 50 0 0.0 0.0 0.00 0.07 0.00 71 1016.8
20260507140040 50 0 0.0 0.0 0.00 0.07 0.00 69 1016.8
20260507135526 49 0 0.0 0.0 0.00 0.07 0.00 71 1017.0
20260507135026 49 0 0.0 0.0 0.00 0.07 0.00 70 1017.1
20260507134546 49 0 0.0 0.0 0.00 0.07 0.00 70 1017.2
20260507134029 49 0 0.0 0.0 0.00 0.07 0.00 72 1017.1
20260507133528 48 0 0.0 0.0 0.00 0.07 0.00 71 1017.2
20260507133046 48 0 0.0 0.0 0.00 0.07 0.00 72 1017.3
20260507132524 48 0 0.0 0.0 0.00 0.07 0.00 73 1017.3
20260507132023 47 0 0.0 0.0 0.00 0.07 0.00 77 1017.3
20260507131554 47 0 0.0 0.0 0.00 0.07 0.00 78 1017.3
20260507131026 46 0 0.0 0.0 0.00 0.07 0.00 82 1017.3
20260507130527 46 0 0.0 0.0 0.00 0.07 0.00 87 1017.3
20260507130046 45 0 0.0 0.0 0.00 0.07 0.00 86 1017.2
20260507125526 44 0 0.0 0.0 0.00 0.09 0.00 88 1017.3
20260507125027 44 0 0.0 0.0 0.00 0.09 0.00 94 1017.2
20260507124543 44 0 0.0 0.0 0.00 0.09 0.00 95 1017.2
20260507124026 44 0 0.0 0.0 0.00 0.09 0.00 95 1017.2
20260507123523 44 0 0.0 0.0 0.00 0.09 0.00 95 1017.3
20260507123043 44 0 0.0 0.0 0.00 0.09 0.00 95 1017.3
20260507122526 44 0 0.0 0.0 0.00 0.09 0.00 95 1017.3
20260507122026 43 0 0.0 0.0 0.00 0.09 0.00 96 1017.3
20260507121546 43 0 0.0 0.0 0.00 0.09 0.00 96 1017.3
20260507121027 43 0 0.0 0.0 0.00 0.09 0.00 95 1017.3
20260507120529 43 0 0.0 0.0 0.00 0.09 0.00 95 1017.3
20260507120047 43 0 0.0 0.0 0.00 0.09 0.00 95 1017.4
20260507115524 43 0 0.0 0.0 0.00 0.11 0.00 95 1017.3
20260507115023 43 0 0.0 0.0 0.00 0.11 0.00 95 1017.2
20260507114542 43 0 0.0 0.0 0.00 0.11 0.00 95 1017.2
20260507114029 42 0 0.0 0.0 0.00 0.11 0.00 95 1017.0
20260507113530 42 0 0.0 0.0 0.00 0.11 0.00 94 1017.2
20260507113042 42 0 0.0 0.0 0.00 0.11 0.00 94 1017.1
20260507112523 42 0 0.0 0.0 0.00 0.11 0.00 94 1017.1
20260507112024 42 0 0.0 0.0 0.00 0.11 0.00 94 1017.0
20260507111541 42 0 0.0 0.0 0.00 0.11 0.00 93 1016.9
20260507111026 42 0 0.0 0.0 0.00 0.11 0.00 94 1016.8
20260507110526 42 0 0.0 0.0 0.00 0.11 0.00 93 1016.8
20260507110040 42 0 0.0 0.0 0.00 0.11 0.00 93 1016.8
20260507105525 42 0 0.0 0.0 0.00 0.18 0.00 92 1016.8
20260507105026 42 0 0.0 0.0 0.00 0.18 0.00 92 1016.7
20260507104539 42 0 0.0 0.0 0.00 0.18 0.00 92 1016.5
20260507104027 42 0 0.0 0.0 0.00 0.18 0.00 92 1016.6
20260507103524 43 0 0.0 0.0 0.00 0.18 0.00 92 1016.6
20260507103044 43 0 0.0 0.0 0.00 0.18 0.00 91 1016.6
20260507102523 43 0 0.0 0.0 0.00 0.18 0.00 91 1016.5
20260507102024 43 0 0.0 0.0 0.00 0.18 0.00 91 1016.4
20260507101542 43 0 0.0 0.0 0.00 0.18 0.00 89 1016.5
20260507101025 43 0 0.0 0.0 0.00 0.18 0.00 89 1016.4
20260507100523 44 0 0.0 0.0 0.00 0.18 0.00 89 1016.4
20260507100052 44 0 0.0 0.0 0.00 0.18 0.00 89 1016.3
20260507095526 44 0 0.0 0.0 0.00 0.43 0.00 87 1016.3
20260507095027 44 0 0.0 0.0 0.00 0.43 0.00 88 1016.2
20260507094540 44 0 0.0 0.0 0.00 0.43 0.00 87 1016.3
20260507094026 45 0 0.0 0.0 0.00 0.43 0.00 85 1016.3
20260507093523 45 0 0.0 0.0 0.00 0.43 0.00 85 1016.3
20260507093039 45 0 0.0 0.0 0.00 0.43 0.00 84 1016.4
20260507092526 45 0 0.0 0.0 0.00 0.43 0.00 84 1016.2
20260507092025 45 0 0.0 0.9 0.00 0.43 0.00 83 1016.3
20260507091547 45 0 0.0 0.9 0.00 0.43 0.00 84 1016.1
20260507091026 46 0 0.0 0.9 0.00 0.43 0.00 83 1016.2
20260507090526 46 0 0.0 0.9 0.00 0.43 0.00 83 1016.3
20260507090050 46 0 0.0 0.9 0.00 0.43 0.00 82 1016.3
20260507085523 46 0 0.0 0.9 0.00 0.49 0.00 81 1016.3
20260507085023 46 0 0.0 0.9 0.00 0.49 0.00 81 1016.2
20260507084550 47 0 0.0 0.9 0.00 0.49 0.00 81 1016.2
20260507084027 47 0 0.0 0.9 0.00 0.49 0.00 84 1016.3
20260507083526 47 0 0.0 0.0 0.00 0.49 0.00 83 1016.2
20260507083041 47 0 0.0 0.0 0.00 0.49 0.00 84 1016.4
20260507082523 47 0 0.0 0.0 0.00 0.49 0.00 84 1016.3
20260507082024 47 0 0.0 0.0 0.00 0.49 0.00 84 1016.2
20260507081550 47 0 0.0 0.9 0.00 0.49 0.00 84 1016.2
20260507081026 47 0 0.0 0.9 0.00 0.49 0.00 84 1016.3
20260507080528 47 0 0.0 0.0 0.00 0.49 0.00 86 1016.3
20260507080047 47 0 0.0 0.0 0.00 0.49 0.00 86 1016.3
20260507075526 48 0 0.0 0.0 0.00 0.49 0.00 86 1016.2
20260507075028 48 0 0.0 0.0 0.00 0.49 0.00 86 1016.1
20260507074546 48 0 0.0 0.0 0.00 0.49 0.00 86 1016.2
20260507074025 48 0 0.0 0.0 0.00 0.49 0.00 85 1016.1
20260507073524 48 0 0.0 0.0 0.00 0.49 0.00 85 1016.1
20260507073040 48 0 0.0 0.9 0.00 0.49 0.00 86 1016.2
20260507072528 48 0 0.0 0.9 0.00 0.49 0.00 86 1016.2
20260507072022 48 0 0.0 0.9 0.00 0.49 0.00 85 1016.2
20260507071539 48 0 0.0 0.0 0.00 0.49 0.00 86 1016.1
20260507071031 48 0 0.0 0.0 0.00 0.49 0.00 86 1016.1
20260507070526 48 0 0.0 0.0 0.00 0.49 0.00 85 1016.2
20260507070049 48 0 0.0 0.0 0.00 0.49 0.00 85 1016.1
20260507065523 48 0 0.0 0.0 0.00 0.49 0.00 85 1016.2
20260507065024 48 0 0.0 0.0 0.00 0.49 0.00 87 1016.2
20260507064618 48 0 0.0 0.0 0.00 0.49 0.00 88 1016.0
20260507064024 48 0 0.0 0.0 0.00 0.49 0.00 88 1016.1
20260507063525 48 0 0.0 0.0 0.00 0.49 0.00 88 1016.1
20260507063042 49 0 0.0 0.0 0.00 0.49 0.00 88 1016.1
20260507062525 49 0 0.0 0.0 0.00 0.49 0.00 87 1016.0
20260507062024 49 0 0.0 0.0 0.00 0.49 0.00 86 1016.1
20260507061542 49 0 0.0 0.0 0.00 0.49 0.00 86 1016.1
20260507061024 49 0 0.0 0.0 0.00 0.49 0.00 87 1016.0
20260507060526 49 0 0.0 0.0 0.00 0.49 0.00 86 1016.1
20260507055523 49 0 0.0 0.0 0.00 0.49 0.00 86 1016.1
20260507055025 49 0 0.0 0.0 0.00 0.49 0.00 86 1016.1
20260507054546 49 0 0.0 0.0 0.00 0.49 0.00 86 1016.3
20260507054026 49 0 0.0 0.9 0.00 0.49 0.00 86 1016.3
20260507053526 49 0 0.0 0.9 0.00 0.49 0.00 85 1016.4
20260507053043 49 88 0.0 0.9 0.00 0.49 0.00 87 1016.5
20260507052524 49 88 0.0 0.9 0.00 0.49 0.00 89 1016.5
20260507052026 49 0 0.0 0.9 0.00 0.49 0.00 92 1016.5
20260507051551 49 0 0.0 3.5 0.00 0.49 0.00 93 1016.7
20260507051026 49 0 0.0 3.5 0.00 0.49 0.00 95 1016.7
20260507050527 50 8 0.9 3.5 0.00 0.49 0.00 96 1016.6
20260507050048 50 290 0.0 1.7 0.00 0.49 0.00 97 1016.6
20260507045525 50 0 0.0 0.0 0.00 0.49 0.00 97 1016.6
20260507045027 50 0 0.0 0.0 0.00 0.49 0.00 97 1016.4
20260507044542 50 0 0.0 0.0 0.00 0.49 0.00 97 1016.5
20260507044023 51 0 0.0 0.0 0.00 0.49 0.00 97 1016.6
20260507043523 50 0 0.0 0.0 0.00 0.49 0.00 97 1016.6
20260507043041 50 0 0.0 0.0 0.00 0.49 0.00 97 1016.5
20260507042528 50 0 0.0 0.0 0.00 0.49 0.00 96 1016.5
20260507042026 50 0 0.0 0.0 0.00 0.49 0.00 96 1016.5
20260507041540 50 0 0.0 0.0 0.00 0.49 0.00 96 1016.5
20260507041032 50 0 0.0 0.0 0.00 0.49 0.00 96 1016.4
20260507040525 50 0 0.0 0.0 0.00 0.49 0.00 96 1016.3
20260507040047 50 0 0.0 0.0 0.00 0.49 0.00 96 1016.4
20260507035525 50 0 0.0 0.0 0.00 0.49 0.49 96 1016.3
20260507035029 51 0 0.0 0.0 0.00 0.49 0.49 96 1016.2
20260507034542 50 0 0.0 0.0 0.00 0.49 0.49 96 1016.1
20260507034024 50 0 0.0 0.0 0.00 0.49 0.49 96 1016.2
20260507033528 50 0 0.0 0.0 0.00 0.49 0.49 96 1016.4
20260507033045 50 0 0.0 0.0 0.00 0.49 0.49 96 1016.3
20260507032524 50 0 0.0 0.0 0.00 0.49 0.49 96 1016.2
20260507032024 50 0 0.0 0.0 0.00 0.49 0.49 96 1016.4
20260507031544 51 0 0.0 0.0 0.00 0.49 0.49 96 1016.5
20260507031023 51 0 0.0 0.0 0.00 0.49 0.49 96 1016.7
20260507030526 50 0 0.0 0.0 0.00 0.49 0.49 96 1016.8
20260507030040 51 0 0.0 0.0 0.00 0.49 0.49 96 1016.6
20260507025530 51 0 0.0 0.0 0.00 0.49 0.49 96 1016.6
20260507025027 51 0 0.0 0.0 0.00 0.49 0.49 95 1016.4
20260507024546 50 0 0.0 0.0 0.00 0.49 0.49 95 1016.1
20260507024024 51 0 0.0 0.0 0.00 0.49 0.49 95 1016.1
20260507023524 51 0 0.0 0.0 0.00 0.49 0.49 95 1016.3
20260507023042 51 0 0.0 0.0 0.00 0.49 0.49 95 1015.9
20260507022524 51 0 0.0 0.0 0.00 0.49 0.49 95 1016.0
20260507022024 51 0 0.0 0.0 0.00 0.49 0.49 95 1016.0
20260507021545 51 0 0.0 0.0 0.00 0.49 0.49 95 1016.1
20260507021024 51 0 0.0 0.0 0.00 0.49 0.49 95 1016.0
20260507020524 51 0 0.0 0.0 0.00 0.49 0.49 95 1015.7
20260507020100 51 0 0.0 0.0 0.00 0.49 0.49 95 1015.8
20260507015526 51 0 0.0 0.0 0.00 0.49 0.49 95 1015.9
20260507015027 51 0 0.0 0.0 0.00 0.49 0.49 95 1016.0
20260507014546 51 0 0.0 0.0 0.00 0.49 0.49 95 1015.9
20260507014023 51 0 0.0 0.0 0.00 0.49 0.49 95 1015.7
20260507013524 51 0 0.0 0.0 0.00 0.49 0.49 94 1015.6
20260507013041 51 0 0.0 0.0 0.00 0.49 0.49 94 1015.7